Flagstaff, AZ

1:21 AM MST on February 25, 2017 (GMT -0700)
Flagstaff Pulliam

Weather History for KFLG - October, 2011

Change the Weather History Date:

Saturday, October 22, 2011

  Actual Average Record
Temperature  
Mean Temperature 49 °F 45 °F  
Max Temperature 70 °F 60 °F 76 °F (2003)
Min Temperature 28 °F 30 °F 9 °F (1906)
Degree Days  
Heating Degree Days 16 20  
Month to date heating degree days 361 369  
Since 1 July heating degree days 567 686  
Cooling Degree Days 0 0  
Month to date cooling degree days 0 0  
Year to date cooling degree days 170 117  
Moisture  
Dew Point 21 °F    
Average Humidity 45    
Maximum Humidity 75    
Minimum Humidity 14    
Precipitation  
Precipitation 0.00 in 0.05 in 0.60 in (2000)
Month to date precipitation 1.68 1.20  
Year to date precipitation 16.38 17.77  
Snow  
Snow 0.00 in 0.10 in 0.80 in (1941)
Month to date snowfall T 0.7  
Since 1 July snowfall T 0.7  
Snow Depth 0.00 in    
Sea Level Pressure  
Sea Level Pressure 30.20 in    
Wind  
Wind Speed 2 mph (ENE)    
Max Wind Speed 10 mph    
Max Gust Speed 14 mph    
Visibility 10 miles    
Events      
T = Trace of Precipitation, MM = Missing Value Source: NWS Daily Summary

Daily Weather History Graph

Daily Weather History Graph

Search for Another Location

Airport or City:

Trip Planner

Search our weather history database for the weather conditions in past years. The results will help you decide how hot, cold, wet, or windy it might be!

Date:

Astronomy

Oct. 22, 2011 Rise Set
Actual Time 6:38 AM MST 5:43 PM MST
Civil Twilight 6:12 AM MST 6:08 PM MST
Nautical Twilight 5:43 AM MST 6:38 PM MST
Astronomical Twilight 5:13 AM MST 7:07 PM MST
Moon 1:50 AM MST (10/22) 2:54 PM MST (10/22)
Length of Visible Light 11h 56m
Length of Day
11h 04m
Waning Crescent, 22% of the Moon is Illuminated
Oct 22
Waning Crescent
Oct 26
New
Nov 2
First Quarter
Nov 10
Full
Nov 18
Last Quarter

Hourly Weather History & Observations

Time (MST) Temp. Dew Point Humidity Pressure Visibility Wind Dir Wind Speed Gust Speed Precip Events Conditions
12:57 AM 30.9 °F 19.9 °F 64% 30.19 in 10.0 mi Calm Calm - N/A   Clear
1:57 AM 30.0 °F 19.9 °F 66% 30.19 in 10.0 mi Calm Calm - N/A   Clear
2:57 AM 30.0 °F 19.0 °F 64% 30.19 in 10.0 mi Calm Calm - N/A   Clear
3:57 AM 30.0 °F 19.9 °F 66% 30.19 in 10.0 mi Calm Calm - N/A   Clear
4:57 AM 28.9 °F 19.9 °F 69% 30.20 in 10.0 mi Calm Calm - N/A   Clear
5:57 AM 28.0 °F 21.0 °F 75% 30.26 in 10.0 mi Calm Calm - N/A   Clear
6:57 AM 28.0 °F 21.0 °F 75% 30.29 in 10.0 mi Calm Calm - N/A   Clear
7:57 AM 39.0 °F 26.1 °F 60% 30.27 in 10.0 mi Calm Calm - N/A   Clear
8:57 AM 54.0 °F 27.0 °F 35% 30.23 in 10.0 mi Calm Calm - N/A   Clear
9:57 AM 62.1 °F 21.9 °F 21% 30.21 in 10.0 mi Variable 4.6 mph - N/A   Clear
10:57 AM 64.9 °F 17.1 °F 16% 30.21 in 10.0 mi East 5.8 mph - N/A   Clear
11:57 AM 64.9 °F 15.1 °F 15% 30.19 in 10.0 mi East 4.6 mph - N/A   Clear
12:57 PM 69.1 °F 18.0 °F 14% 30.17 in 10.0 mi Variable 4.6 mph - N/A   Clear
1:57 PM 69.1 °F 18.0 °F 14% 30.15 in 10.0 mi North 4.6 mph - N/A   Clear
2:57 PM 69.1 °F 19.9 °F 15% 30.14 in 10.0 mi East 8.1 mph - N/A   Clear
3:57 PM 69.1 °F 19.9 °F 15% 30.14 in 10.0 mi ENE 6.9 mph - N/A   Clear
4:57 PM 64.9 °F 21.0 °F 19% 30.16 in 10.0 mi ENE 6.9 mph - N/A   Clear
5:57 PM 55.0 °F 24.1 °F 30% 30.21 in 10.0 mi East 3.5 mph - N/A   Clear
6:57 PM 48.0 °F 23.0 °F 37% 30.26 in 10.0 mi Calm Calm - N/A   Clear
7:57 PM 42.1 °F 23.0 °F 47% 30.23 in 10.0 mi Calm Calm - N/A   Clear
8:57 PM 41.0 °F 21.9 °F 47% 30.18 in 10.0 mi Calm Calm - N/A   Clear
9:57 PM 37.9 °F 21.9 °F 53% 30.17 in 10.0 mi Calm Calm - N/A   Clear
10:57 PM 36.0 °F 21.9 °F 57% 30.15 in 10.0 mi Calm Calm - N/A   Clear
11:57 PM 33.1 °F 21.0 °F 61% 30.16 in 10.0 mi Calm Calm - N/A   Clear